Regional Weather Roundup
Issued by NWS Newport/Morehead, NC

Current Version | Previous Version | Graphics & Text | Print | Product List | Glossary Off
Versions: 1 2 3 4 5 6 7 8 9 10 11 12 13 14 15 16 17 18 19 20 21 22 23 24 25 26 27 28 29 30 31 32 33 34 35 36 37 38 39 40 41 42 43 44 45 46 47 48 49 50

721
ASUS42 KMHX 291013
RWRMHX
WEATHER ROUNDUP FOR EASTERN NORTH CAROLINA
NATIONAL WEATHER SERVICE NEWPORT/MOREHEAD CITY NC
600 AM EDT FRI JUL 29 2016

NOTE: "FAIR" INDICATES FEW OR NO CLOUDS BELOW 12,000 FEET
WITH NO SIGNIFICANT WEATHER AND/OR OBSTRUCTIONS TO VISIBILITY

NCZ015>017-031-032-045>047-102-103-291100-
NORTH COAST

CITY           SKY/WX    TMP DP  RH WIND       PRES   REMARKS
EDENTON        CLEAR     83  72  68 SW9       29.84S
ELIZABETH CITY CLEAR     81  72  74 SW12      29.82R
KITTY HAWK     SUNNY     82  73  74 SW7       29.82S
MANTEO           N/A     81  77  86 W12       29.84S

$$

NCZ045>047-081-094-103-104-291100-
CENTRAL COAST

CITY           SKY/WX    TMP DP  RH WIND       PRES   REMARKS
FRISCO         CLEAR     80  77  90 SW9       29.87S

$$

NCZ095-097-098-100-101-291100-
SOUTHERN COAST

CITY           SKY/WX    TMP DP  RH WIND       PRES   REMARKS
BEAUFORT       CLEAR     82  78  88 SW10      29.89R
CEDAR ISLAND   NOT AVBL
JACKSONVILLE   CLEAR     79  74  84 SW9       29.89S
PINEY ISLAND   NOT AVBL
WILMINGTON     CLEAR     80  76  87 SW9       29.91S


$$

NCZ011>013-027>030-043-044-078>080-089-090>093-098-291100-
COASTAL PLAIN

CITY           SKY/WX    TMP DP  RH WIND       PRES   REMARKS
AHOSKIE        CLEAR     74  72  91 CALM      29.84R
CLINTON        CLEAR     78  75  91 CALM      29.89S
ELIZABETHTOWN  CLEAR     78  76  92 S5        29.90S
GOLDSBORO      CLEAR     80  74  84 SW8       29.85S
GREENVILLE     CLEAR     79  75  89 SW7       29.88R
HAVELOCK       CLEAR     79  74  84 SW9       29.89S
KENANSVILLE    NOT AVBL
KINSTON        CLEAR     79  74  86 SW7       29.88R
NEW BERN       CLEAR     79  74  84 SW7       29.89S
RICHLANDS      NOT AVBL
ROCKY MOUNT    CLEAR     77  72  84 SW6       29.85S
WASHINGTON     CLEAR     79  74  86 SW9       29.86R
WHITEVILLE     CLEAR     78  75  90 SW5       29.91S

$$

AMZ130-135-150-152-154-156-158-170-250-252-270-ANZ085-086-088-633-658-670-291100-
MARINE OBSERVATIONS

STATION/POSITION TIME  TEMP    WIND        PRES    WAVE   SWELL
                       AIR SEA DIR/SP/G            HT/PER HT/PER
                 (UTC) (F)     (DEG/KT/KT) (MB)    (FT/S) (FT/S)
CHESAPEAKE LIGHT NOT AVBL
64 E VA BEACH    0950   83 81  220/ 16/ 17 1009.0    3/ 5   2/ 7
DUCK             0900   84 67  230/ 14/ 17 1009.2
2 E DUCK         0911      73                N/A     1/ 8
OREGON INLET     0900   84 83  230/ 15/ 19 1010.2
13E OREGON INLT  0900      80                N/A     3/ 5   2/ 8
HATTERAS CG      0900   81 83  240/ 10/ 13 1011.1
DIAMOND BUOY     0950   84 85  250/ 17/ 21 1011.3    4/ 6   2/ 9
CAPE LOOKOUT     1000   83     240/ 12/ 15 1011.9
BEAUFORT LAB     0900   82 83  240/  4/  9 1011.4
30 SE NEW RVR IN 0908   84 85  240/ 19/ 25 1012.1
30 SE NEW RVR IN 0925      85                N/A     5/ 6
27 SE WRIGHTSVLE 0908   84 84  230/ 17/ 23 1012.7
5 SE WRIGHTSVLE  0908   81 80  250/ 10/ 14 1013.4
225 S CAPE HAT   0950   83 84  240/  8/ 10 1015.4    3/ 7   3/ 7
41 SE CHARLESTON 0950   85 86  240/ 17/ 21 1013.5    4/ 6   2/ 8

$$




USA.gov is the U.S. government's official web portal to all federal, state and local government web resources and services.